Rockwood, MI

3:03 PM EST on February 19, 2017 (GMT -0500)
Grosse Ile Municipal

Weather History for KONZ - October, 2011

Change the Weather History Date:

Tuesday, October 11, 2011

  Actual Average (KDTW) Record (KDTW)
Temperature  
Mean Temperature 62 °F -  
Max Temperature 73 °F 61 °F 86 °F (1962)
Min Temperature 51 °F 41 °F 25 °F (1906)
Degree Days  
Heating Degree Days 3    
Growing Degree Days 12 (Base 50)    
Moisture  
Dew Point 54 °F    
Average Humidity 77    
Maximum Humidity 94    
Minimum Humidity 47    
Precipitation  
Precipitation 0.00 in - - ()
Sea Level Pressure  
Sea Level Pressure 30.09 in    
Wind  
Wind Speed 1 mph (SE)    
Max Wind Speed 6 mph    
Max Gust Speed -    
Visibility 7 miles    
Events      
Averages and records for this station are not official NWS values.
T = Trace of Precipitation, MM = Missing Value Source: NWS Daily Summary

Daily Weather History Graph

Daily Weather History Graph

Search for Another Location

Airport or City:

Trip Planner

Search our weather history database for the weather conditions in past years. The results will help you decide how hot, cold, wet, or windy it might be!

Date:

Astronomy

Oct. 11, 2011 Rise Set
Actual Time 7:40 AM EDT 6:57 PM EDT
Civil Twilight 7:12 AM EDT 7:25 PM EDT
Nautical Twilight 6:39 AM EDT 7:58 PM EDT
Astronomical Twilight 6:07 AM EDT 8:30 PM EDT
Moon 6:27 PM EDT (10/11) 7:17 AM EDT (10/11)
Length of Visible Light 12h 13m
Length of Day
11h 17m
Full, 100% of the Moon is Illuminated
Oct 11
Full
Oct 11
Full
Oct 19
Last Quarter
Oct 26
New
Nov 2
First Quarter

Hourly Weather History & Observations

Time (EDT) Temp. Dew Point Humidity Pressure Visibility Wind Dir Wind Speed Gust Speed Precip Events Conditions
12:13 AM 57.2 °F 53.6 °F 88% 30.15 in 10.0 mi Calm Calm - N/A   Clear
12:34 AM 55.4 °F 53.6 °F 94% 30.15 in 5.0 mi Calm Calm - N/A   Clear
12:54 AM 55.4 °F 51.8 °F 88% 30.14 in 5.0 mi Calm Calm - N/A   Clear
1:14 AM 55.4 °F 51.8 °F 88% 30.13 in 5.0 mi Calm Calm - N/A   Clear
1:34 AM 55.4 °F 51.8 °F 88% 30.13 in 7.0 mi Calm Calm - N/A   Clear
2:14 AM 55.4 °F 51.8 °F 88% 30.13 in 7.0 mi Calm Calm - N/A   Clear
2:33 AM 53.6 °F 51.8 °F 94% 30.13 in 5.0 mi Calm Calm - N/A   Clear
2:54 AM 55.4 °F 51.8 °F 88% 30.12 in 3.0 mi Calm Calm - N/A   Clear
3:14 AM 53.6 °F 51.8 °F 94% 30.12 in 4.0 mi East 3.5 mph - N/A   Clear
3:34 AM 57.2 °F 55.4 °F 94% 30.11 in 7.0 mi East 3.5 mph - N/A   Clear
3:54 AM 57.2 °F 55.4 °F 94% 30.11 in 7.0 mi Calm Calm - N/A   Clear
4:14 AM 57.2 °F 55.4 °F 94% 30.11 in 4.0 mi Calm Calm - N/A   Clear
4:34 AM 55.4 °F 53.6 °F 94% 30.11 in 4.0 mi Calm Calm - N/A   Clear
4:54 AM 55.4 °F 53.6 °F 94% 30.11 in 4.0 mi Calm Calm - N/A   Clear
5:14 AM 55.4 °F 53.6 °F 94% 30.11 in 5.0 mi Calm Calm - N/A   Clear
5:34 AM 53.6 °F 51.8 °F 94% 30.11 in 4.0 mi Calm Calm - N/A   Clear
5:54 AM 53.6 °F 51.8 °F 94% 30.11 in 2.0 mi ENE 3.5 mph - N/A   Clear
6:14 AM 55.4 °F 53.6 °F 94% 30.12 in 4.0 mi Calm Calm - N/A   Clear
6:33 AM 51.8 °F 50.0 °F 94% 30.11 in 1.2 mi Calm Calm - N/A   Mist
6:54 AM 53.6 °F 51.8 °F 94% 30.11 in 3.0 mi Calm Calm - N/A   Clear
7:14 AM 55.4 °F 53.6 °F 94% 30.11 in 3.0 mi Calm Calm - N/A   Clear
7:33 AM 57.2 °F 55.4 °F 94% 30.11 in 3.0 mi East 3.5 mph - N/A   Clear
7:54 AM 55.4 °F 53.6 °F 94% 30.12 in 2.5 mi Calm Calm - N/A   Clear
8:14 AM 53.6 °F 51.8 °F 94% 30.12 in 1.5 mi Calm Calm - N/A   Mist
9:13 AM 59.0 °F 57.2 °F 94% 30.13 in 5.0 mi ESE 3.5 mph - N/A   Clear
9:34 AM 60.8 °F 57.2 °F 88% 30.12 in 5.0 mi Calm Calm - N/A   Clear
9:54 AM 62.6 °F 59.0 °F 88% 30.12 in 10.0 mi ESE 3.5 mph - N/A   Clear
10:14 AM 64.4 °F 59.0 °F 83% 30.12 in 10.0 mi SE 3.5 mph - N/A   Clear
10:53 AM 66.2 °F 55.4 °F 68% 30.11 in 10.0 mi SSE 4.6 mph - N/A   Clear
11:14 AM 66.2 °F 55.4 °F 68% 30.11 in 10.0 mi South 4.6 mph - N/A   Clear
11:34 AM 68.0 °F 55.4 °F 64% 30.10 in 10.0 mi Calm Calm - N/A   Clear
11:54 AM 68.0 °F 55.4 °F 64% 30.10 in 10.0 mi South 3.5 mph - N/A   Clear
12:14 PM 69.8 °F 55.4 °F 60% 30.09 in 10.0 mi SSE 3.5 mph - N/A   Clear
12:33 PM 69.8 °F 55.4 °F 60% 30.09 in 10.0 mi SE 3.5 mph - N/A   Clear
12:54 PM 69.8 °F 55.4 °F 60% 30.09 in 10.0 mi SSE 5.8 mph - N/A   Clear
1:14 PM 68.0 °F 55.4 °F 64% 30.08 in 10.0 mi South 5.8 mph - N/A   Clear
1:34 PM 69.8 °F 55.4 °F 60% 30.08 in 10.0 mi South 4.6 mph - N/A   Clear
1:54 PM 69.8 °F 55.4 °F 60% 30.07 in 10.0 mi SSE 5.8 mph - N/A   Clear
2:14 PM 71.6 °F 55.4 °F 57% 30.06 in 10.0 mi SSE 5.8 mph - N/A   Clear
2:34 PM 71.6 °F 55.4 °F 57% 30.06 in 10.0 mi South 5.8 mph - N/A   Clear
2:54 PM 71.6 °F 53.6 °F 53% 30.05 in 10.0 mi SSE 5.8 mph - N/A   Clear
3:14 PM 71.6 °F 51.8 °F 50% 30.05 in 10.0 mi SSE 5.8 mph - N/A   Clear
3:34 PM 73.4 °F 51.8 °F 47% 30.05 in 10.0 mi South 4.6 mph - N/A   Clear
4:14 PM 73.4 °F 53.6 °F 50% 30.03 in 10.0 mi Calm Calm - N/A   Clear
4:34 PM 73.4 °F 57.2 °F 57% 30.03 in 10.0 mi Calm Calm - N/A   Clear
4:54 PM 73.4 °F 55.4 °F 53% 30.03 in 10.0 mi Calm Calm - N/A   Clear
5:14 PM 71.6 °F 57.2 °F 60% 30.03 in 10.0 mi Calm Calm - N/A   Clear
5:54 PM 69.8 °F 57.2 °F 64% 30.02 in 10.0 mi Calm Calm - N/A   Clear
6:14 PM 69.8 °F 55.4 °F 60% 30.02 in 10.0 mi Calm Calm - N/A   Clear
6:54 PM 69.8 °F 55.4 °F 60% 30.01 in 10.0 mi East 4.6 mph - N/A   Clear
7:14 PM 68.0 °F 55.4 °F 64% 30.01 in 10.0 mi East 4.6 mph - N/A   Clear
7:34 PM 68.0 °F 55.4 °F 64% 30.01 in 10.0 mi East 4.6 mph - N/A   Clear
7:54 PM 66.2 °F 57.2 °F 73% 30.02 in 10.0 mi East 3.5 mph - N/A   Clear
8:14 PM 64.4 °F 55.4 °F 73% 30.01 in 10.0 mi ENE 5.8 mph - N/A   Clear
8:34 PM 64.4 °F 55.4 °F 73% 30.01 in 10.0 mi ENE 6.9 mph - N/A   Clear
8:54 PM 64.4 °F 57.2 °F 77% 30.01 in 10.0 mi ENE 8.1 mph - N/A   Clear
9:14 PM 64.4 °F 57.2 °F 77% 30.00 in 10.0 mi East 5.8 mph - N/A   Clear
9:34 PM 64.4 °F 57.2 °F 77% 30.01 in 10.0 mi East 4.6 mph - N/A   Clear
9:54 PM 64.4 °F 57.2 °F 77% 30.01 in 10.0 mi East 4.6 mph - N/A   Clear
10:13 PM 62.6 °F 57.2 °F 82% 30.01 in 10.0 mi East 4.6 mph - N/A   Clear
10:34 PM 62.6 °F 57.2 °F 82% 30.01 in 10.0 mi Calm Calm - N/A   Clear
10:54 PM 60.8 °F 57.2 °F 88% 30.00 in 10.0 mi ENE 4.6 mph - N/A   Clear
11:14 PM 60.8 °F 57.2 °F 88% 30.00 in 10.0 mi ENE 3.5 mph - N/A   Clear
11:34 PM 60.8 °F 57.2 °F 88% 30.00 in 10.0 mi Calm Calm - N/A   Clear
11:54 PM 60.8 °F 57.2 °F 88% 30.00 in 10.0 mi East 4.6 mph - N/A   Clear